[[{"header":{"parameterUnit":"m.s-1","parameterCategory":1,"la1":30.2991,"la2":30.254,"lo1":-89.0895,"lo2":-89.0444,"dy":0.0017,"dx":0.0017,"nx":28,"ny":28,"refTime":"2025-03-19T03:00:00:Z","depth":0,"parameterNumber":2,"parameterNumberName":"U-component_of_WINDS"},"data":[0,0,0,0,0,0,0,0,0,0,0,0,0,0,0,0,0,0,0,0,0,0,0,0,0,0,0,0,0,0,0,0,0,0,0,0,0,0,0,0,0,0,0,0,0,0,0,0,0,0,0,0,0,0,0,0,0,0,1.4644,1.4646,0,1.4776,1.4778,1.4779,1.4798,1.4796,1.4795,1.4794,1.4934,1.4939,1.4944,0,0,0,0,0,0,0,0,0,0,0,0,0,1.4415,1.4419,1.4644,1.4646,1.4648,1.4776,1.4778,1.478,1.4798,1.4796,1.4795,1.4793,1.4932,1.4938,1.4944,0,0,0,0,0,0,0,0,0,0,0,0,0,1.4527,1.442,1.4644,1.4672,1.4676,1.4776,1.4778,1.478,1.4798,1.4796,1.4794,1.4793,1.4931,1.4938,1.4945,1.5027,0,0,1.4967,1.497,0,0,0,0,0,0,0,0,1.4521,1.4536,1.4666,1.467,1.4675,1.4768,1.4748,1.4863,1.4799,1.4752,1.4794,1.4792,1.4881,1.4892,1.4921,1.5034,1.504,1.4968,1.4972,1.4976,1.4978,0,0,0,0,0,0,0,1.4513,1.453,1.4697,1.4668,1.4673,1.468,1.4694,1.477,1.4825,1.4756,1.4757,1.4773,1.4883,1.4914,1.4924,1.5042,1.4968,1.4974,1.4979,1.4982,1.5232,1.5234,0,0,0,0,0,0,1.4499,1.4523,1.4692,1.4701,1.4591,1.4686,1.4701,1.474,1.4824,1.4835,1.4774,1.4773,1.4902,1.4916,1.4929,1.5033,1.4975,1.4982,1.4987,1.5229,1.5232,1.5234,0,0,0,0,0,0,1.4494,1.4514,1.4687,1.4613,1.4635,1.4692,1.4735,1.4744,1.4775,1.4838,1.4849,1.4795,1.4901,1.4919,1.5003,1.5038,1.4986,1.4992,1.5227,1.523,1.5233,1.5239,0,0,0,0,0,0,1.4488,1.4512,1.4542,1.4613,1.4639,1.4757,1.4737,1.4748,1.4787,1.4787,1.4861,1.4871,1.4901,1.4992,1.501,1.5047,1.4998,1.5224,1.5228,1.5232,1.5236,1.5243,1.5248,0,0,0,0,0,1.4479,1.454,1.4544,1.4564,1.4678,1.4758,1.4773,1.4805,1.479,1.4822,1.4863,1.4869,1.5031,1.5,1.5021,1.5061,1.5222,1.5227,1.5232,1.5234,1.5241,1.5248,0,0,0,0,0,0,1.4473,1.4549,1.4555,1.4639,1.4692,1.4761,1.4803,1.4812,1.4871,1.4869,1.4907,1.4924,1.5006,1.5042,1.5006,1.5146,1.5125,1.5135,1.512,1.5128,1.5133,1.5123,1.5004,0,0,0,0,0,1.4481,1.4539,1.4603,1.4672,1.4698,1.4745,1.4782,1.4802,1.4859,1.4881,1.4928,1.4985,1.5049,1.509,1.5152,1.5242,1.5259,1.5279,1.5285,1.529,1.5298,1.535,1.536,1.5251,1.5251,1.5251,0,0,1.4499,1.4548,1.4582,1.4672,1.4715,1.4775,1.4764,1.4828,1.4875,1.4892,1.4974,1.501,1.5076,1.5163,1.5204,1.5196,1.5332,1.5296,1.5299,1.5305,1.5356,1.5366,1.5375,1.5254,1.5254,1.5253,0,0,1.4563,1.4605,1.4668,1.4711,1.4776,1.4808,1.4823,1.4891,1.4916,1.4998,1.5013,1.507,1.5178,1.5225,1.5263,1.5346,1.5355,1.5366,1.5396,1.5447,1.5455,1.5463,1.5495,1.5505,1.5373,1.5373,1.5373,0,1.4578,1.4668,1.4699,1.4763,1.4803,1.482,1.4885,1.4926,1.5009,1.5037,1.5026,1.5164,1.5209,1.5309,1.5329,1.5359,1.5379,1.5358,1.5451,1.5459,1.5467,1.5498,1.5509,1.5374,1.5374,1.5374,1.5374,0,1.4684,1.4746,1.4789,1.4868,1.4912,1.4976,1.5019,1.5061,1.5078,1.5111,1.5197,1.5252,1.5326,1.5351,1.5368,1.5454,1.5447,1.5443,1.5423,1.5478,1.5507,1.5519,1.5376,1.5375,1.5375,1.5375,0,0,1.4747,1.4842,1.4857,1.4894,1.4968,1.5018,1.5084,1.5156,1.5192,1.5249,1.5307,1.5399,1.5396,1.5439,1.5462,1.5506,1.5571,1.5497,1.5499,1.551,1.5671,1.5674,1.5687,1.5577,1.5579,1.5581,1.5666,0,1.482,1.4936,1.4967,1.5067,1.5127,1.5145,1.5203,1.5256,1.5289,1.5346,1.5384,1.5449,1.544,1.5466,1.5511,1.5553,1.5604,1.5548,1.5633,1.5636,1.5617,1.5702,1.5705,1.5783,1.5678,1.568,1.5681,0,1.4921,1.4979,1.5085,1.5153,1.5179,1.523,1.5299,1.5353,1.5414,1.5436,1.5484,1.5503,1.5575,1.5551,1.5652,1.5613,1.565,1.5677,1.5681,1.5691,1.5662,1.5716,1.5808,1.582,1.5699,1.5698,1.5696,0,1.4958,1.5063,1.514,1.5171,1.5252,1.5288,1.5323,1.5383,1.5424,1.5485,1.5513,1.5582,1.562,1.5674,1.5712,1.5691,1.5811,1.5789,1.5833,1.5832,1.5858,1.5856,1.5959,1.588,1.588,1.588,1.5879,0,1.5038,1.5102,1.5158,1.5206,1.5279,1.5315,1.5387,1.5424,1.5477,1.5533,1.5554,1.5607,1.5653,1.5713,1.5744,1.5824,1.5841,1.5862,1.587,1.5861,1.5858,1.5886,1.5882,1.5883,1.5882,1.5881,1.5881,0,1.5091,1.5131,1.5217,1.5286,1.5306,1.5357,1.5417,1.5466,1.55,1.5572,1.5591,1.5646,1.5718,1.5761,1.5852,1.5873,1.5962,1.5967,1.5941,1.5944,1.5986,1.5982,1.6111,1.6131,1.6038,1.6038,1.6039,0,1.5139,1.5189,1.5264,1.5303,1.5339,1.5401,1.5444,1.5482,1.5526,1.56,1.564,1.5713,1.5773,1.5888,1.5937,1.6008,1.6015,1.6056,1.6026,1.6016,1.6018,1.6015,1.6021,1.6061,1.6062,1.6063,1.6063,0,1.5222,1.5239,1.5299,1.5366,1.5416,1.5472,1.5527,1.5558,1.5606,1.5654,1.5727,1.5774,1.5867,1.5941,1.6015,1.6055,1.6068,1.6072,1.6086,1.6078,1.6062,1.6073,1.5956,1.6069,1.6068,1.6068,1.6068,1.6067,1.5275,1.5321,1.5381,1.5448,1.5493,1.5545,1.5594,1.5634,1.5695,1.5773,1.5793,1.587,1.5933,1.6035,1.6076,1.6138,1.6132,1.6152,1.6157,1.6162,1.6164,1.6051,1.6152,1.6152,1.6152,1.6152,1.6152,0,1.5359,1.5399,1.546,1.5536,1.5589,1.5596,1.5657,1.5702,1.5769,1.5826,1.5885,1.597,1.6042,1.6097,1.6171,1.621,1.6218,1.6229,1.6227,1.6236,1.6164,1.6145,1.6221,1.6221,1.6221,1.6221,1.6221,1.6221,1.5409,1.5488,1.5513,1.5615,1.5655,1.573,1.5765,1.5814,1.5859,1.5953,1.6012,1.6047,1.6104,1.6182,1.6249,1.6264,1.6291,1.63,1.6316,1.6248,1.6241,1.6234,1.6216,1.6305,1.6305,1.6383,1.6383,1.6384]},{"header":{"parameterUnit":"m.s-1","parameterCategory":1,"la1":30.2991,"la2":30.254,"lo1":-89.0895,"lo2":-89.0444,"dy":0.0017,"dx":0.0017,"nx":28,"ny":28,"refTime":"2025-03-19T03:00:00:Z","depth":0,"parameterNumber":3,"parameterNumberName":"V-component_of_WINDS"},"data":[0,0,0,0,0,0,0,0,0,0,0,0,0,0,0,0,0,0,0,0,0,0,0,0,0,0,0,0,0,0,0,0,0,0,0,0,0,0,0,0,0,0,0,0,0,0,0,0,0,0,0,0,0,0,0,0,0,0,4.7502,4.7503,0,4.7622,4.7623,4.7624,4.7651,4.7651,4.765,4.7649,4.7766,4.777,4.7773,0,0,0,0,0,0,0,0,0,0,0,0,0,4.7292,4.7296,4.7502,4.7503,4.7505,4.7621,4.7623,4.7625,4.7652,4.7651,4.765,4.7649,4.7765,4.7769,4.7774,0,0,0,0,0,0,0,0,0,0,0,0,0,4.7395,4.7297,4.7501,4.7532,4.7536,4.7621,4.7623,4.7625,4.7652,4.765,4.7649,4.7648,4.7763,4.7769,4.7774,4.7835,0,0,4.7792,4.7795,0,0,0,0,0,0,0,0,4.7389,4.7402,4.7526,4.753,4.7535,4.762,4.7592,4.7695,4.7652,4.7608,4.7649,4.7647,4.7718,4.7727,4.7752,4.7841,4.7846,4.7793,4.7796,4.7799,4.78,0,0,0,0,0,0,0,4.7382,4.7397,4.7549,4.7528,4.7533,4.7539,4.7552,4.7612,4.7668,4.7611,4.7614,4.7628,4.772,4.7747,4.7755,4.7847,4.7793,4.7798,4.7801,4.7804,4.7993,4.7995,0,0,0,0,0,0,4.737,4.7391,4.7545,4.7553,4.7458,4.7544,4.7559,4.7594,4.7668,4.7678,4.7629,4.7629,4.7737,4.7749,4.776,4.7837,4.7799,4.7804,4.7807,4.7992,4.7994,4.7995,0,0,0,0,0,0,4.7365,4.7383,4.754,4.7473,4.7493,4.7549,4.7589,4.7597,4.7624,4.7681,4.769,4.7646,4.7737,4.7751,4.7817,4.7841,4.7807,4.7812,4.799,4.7992,4.7994,4.7992,0,0,0,0,0,0,4.7359,4.7382,4.7406,4.7473,4.7497,4.7597,4.759,4.76,4.7635,4.7636,4.77,4.7709,4.7737,4.7808,4.7823,4.7849,4.7817,4.7988,4.7991,4.7994,4.799,4.7993,4.7997,0,0,0,0,0,4.7352,4.7399,4.7407,4.7425,4.7529,4.7598,4.7612,4.7645,4.7636,4.7661,4.7698,4.7707,4.7836,4.7815,4.7831,4.7859,4.7986,4.799,4.7993,4.7988,4.7993,4.7997,0,0,0,0,0,0,4.733,4.7408,4.7418,4.7488,4.7537,4.7603,4.7635,4.7648,4.7698,4.7697,4.7734,4.7748,4.7812,4.7842,4.7817,4.7923,4.7911,4.7918,4.7901,4.7906,4.791,4.7901,4.7821,0,0,0,0,0,4.7334,4.7386,4.745,4.7506,4.753,4.7578,4.761,4.7632,4.7682,4.7702,4.7744,4.7791,4.7843,4.7876,4.7927,4.7994,4.8009,4.8022,4.8025,4.8028,4.8033,4.8073,4.808,4.8007,4.8007,4.8007,0,0,4.7342,4.7391,4.742,4.7503,4.7543,4.7595,4.7595,4.7649,4.7688,4.771,4.7776,4.7808,4.7863,4.7931,4.7962,4.7958,4.8057,4.8032,4.8034,4.8038,4.8077,4.8084,4.809,4.8009,4.8009,4.8008,0,0,4.7383,4.7425,4.7477,4.7518,4.758,4.7612,4.7625,4.7689,4.7712,4.7779,4.7797,4.7843,4.7931,4.797,4.8002,4.8061,4.8071,4.8076,4.8094,4.8132,4.8138,4.8143,4.8165,4.8172,4.8081,4.8081,4.8081,0,4.7384,4.7464,4.7501,4.7556,4.7592,4.7617,4.767,4.7708,4.7782,4.7805,4.78,4.7913,4.7951,4.8029,4.8044,4.8068,4.8083,4.8068,4.8134,4.814,4.8145,4.8166,4.8174,4.8081,4.8081,4.8081,4.8081,0,4.7464,4.7519,4.7554,4.7628,4.7668,4.7721,4.7766,4.7801,4.782,4.7852,4.7921,4.7969,4.803,4.805,4.8067,4.8131,4.8127,4.8127,4.8116,4.8152,4.8173,4.8181,4.8082,4.8082,4.8081,4.8081,0,0,4.7493,4.7589,4.7601,4.7636,4.7708,4.7751,4.7805,4.7868,4.7898,4.7949,4.7995,4.807,4.8072,4.8108,4.813,4.8164,4.8209,4.816,4.8162,4.8168,4.8282,4.8282,4.8291,4.8216,4.8218,4.8219,4.8278,0,4.7543,4.7644,4.768,4.7763,4.7815,4.7841,4.7888,4.7936,4.7969,4.8017,4.8051,4.8105,4.8102,4.8124,4.8159,4.8196,4.8232,4.8192,4.8259,4.8261,4.8245,4.8302,4.8301,4.8354,4.8286,4.8288,4.8289,0,4.7615,4.767,4.7759,4.7826,4.7849,4.7891,4.7953,4.7999,4.8054,4.8075,4.8117,4.8137,4.8195,4.818,4.826,4.8232,4.8261,4.8284,4.8287,4.8294,4.8277,4.8311,4.8372,4.838,4.8301,4.83,4.83,0,4.7629,4.7725,4.7791,4.782,4.7899,4.7929,4.7963,4.8017,4.8053,4.8106,4.813,4.8188,4.822,4.8264,4.8299,4.8285,4.8376,4.8364,4.8395,4.8394,4.8413,4.8411,4.848,4.8431,4.8431,4.843,4.843,0,4.7682,4.7735,4.7799,4.7839,4.79,4.7941,4.7999,4.8034,4.8083,4.813,4.8155,4.8198,4.8242,4.8291,4.8319,4.8381,4.8395,4.8413,4.842,4.8412,4.8409,4.8431,4.8429,4.8433,4.8432,4.8432,4.8431,0,4.7707,4.7752,4.7826,4.7897,4.7916,4.7957,4.8017,4.8057,4.8091,4.815,4.8167,4.8219,4.8279,4.8319,4.8393,4.8412,4.848,4.8486,4.8462,4.8466,4.8494,4.8491,4.858,4.8594,4.8535,4.8535,4.8536,0,4.7738,4.7781,4.7857,4.7892,4.7927,4.7982,4.802,4.8061,4.81,4.8167,4.8199,4.8261,4.8312,4.8405,4.8449,4.8507,4.8514,4.8541,4.8523,4.8514,4.8516,4.8513,4.8518,4.8544,4.8544,4.8545,4.8545,0,4.7789,4.781,4.7865,4.7929,4.7974,4.8025,4.8077,4.8103,4.8153,4.8195,4.8258,4.8298,4.8376,4.8437,4.8499,4.8532,4.8547,4.8551,4.8561,4.8553,4.8538,4.8548,4.8471,4.8549,4.8548,4.8548,4.8548,4.8548,4.7819,4.7859,4.7919,4.798,4.8024,4.8072,4.8114,4.8155,4.8208,4.8277,4.8298,4.8363,4.8418,4.8504,4.8538,4.8589,4.8586,4.8601,4.8605,4.8608,4.8609,4.853,4.86,4.86,4.86,4.86,4.86,0,4.7872,4.7913,4.7969,4.8042,4.809,4.8102,4.816,4.8199,4.8257,4.8308,4.836,4.8432,4.8491,4.8541,4.8602,4.8633,4.8641,4.8648,4.8646,4.8654,4.8607,4.8592,4.864,4.864,4.864,4.864,4.864,4.864,4.7905,4.7974,4.8002,4.8092,4.8132,4.8198,4.8231,4.8275,4.8317,4.8397,4.8448,4.8481,4.8532,4.8597,4.8652,4.8665,4.8687,4.8692,4.8706,4.8661,4.8657,4.8652,4.8639,4.8696,4.8696,4.8749,4.8749,4.875]}]]